Regional Weather Roundup
Issued by NWS Jackson, KY

Home | Current Version | Previous Version | Text Only | Print | Product List | Glossary Off
Versions: 1 2 3 4 5 6 7 8 9 10 11 12 13 14 15 16 17 18 19 20 21 22 23 24 25 26 27 28 29 30 31 32 33 34 35 36 37 38 39 40 41 42 43 44 45 46 47 48 49 50

000
ASUS43 KJKL 030410
RWRJKL

EAST KENTUCKY HOURLY WEATHER ROUNDUP
NATIONAL WEATHER SERVICE JACKSON KY
1100 PM EST MON MAR 02 2015

NOTE: "FAIR" INDICATES FEW OR NO CLOUDS BELOW 12,000 FEET WITH
NO SIGNIFICANT WEATHER AND/OR OBSTRUCTIONS TO VISIBILITY.

* THESE REPORTS ARE NOT UNDER NWS QUALITY CONTROL AND MAY NOT
  REPORT WEATHER SUCH AS PRECIPITATION AND FOG.

KYZ079-080-083-085-087-088-110-112-115-119-120-030500
...EASTERN KENTUCKY...

CITY           SKY/WX    TMP DP  RH WIND       PRES   REMARKS
JACKSON          N/A     32  18  56 VRB5      30.31F WCI  27
LONDON           N/A     36  17  46 E3        30.29F
SOMERSET*        N/A     32  21  64 CALM      30.33S
MONTICELLO*      N/A     34  27  76 CALM      30.33F
MIDDLESBORO*     N/A     32  31  97 CALM      30.31S
HAZARD APT*    CLEAR     34  21  60 CALM      30.31F
BLACK MTN*       N/A     36   9  32 S9          N/A  WCI  29
PIKEVILLE APT* CLEAR     32  19  59 NE5       30.31F WCI  27
BIG SANDY*       N/A     32  20  61 E6        30.34F WCI  26
MOREHEAD APT*    N/A     30  16  55 E7        30.35F WCI  23
$$

KYZ035-036-041-042-044-050-067-078-099-030500
...CENTRAL KENTUCKY...

CITY           SKY/WX    TMP DP  RH WIND       PRES   REMARKS
MT STERLING*     N/A     30  19  64 E6        30.34F WCI  24
FLEMING/MASON* CLEAR     25  16  68 NE6       30.35F WCI  18
DANVILLE*        N/A     30  21  69 E3        30.33S
RICHMOND*        N/A     30  21  69 E5        30.31F WCI  25
LEXINGTON        N/A     29  18  63 E10       30.32F WCI  20
FRANKFORT        N/A     29  17  61 E8        30.33S WCI  21
$$

KYZ091>093-OHZ055-061-077-WVZ005-015-034-035-042-030500
...SOUTHERN OHIO/WEST VIRGINIA...

CITY           SKY/WX    TMP DP  RH WIND       PRES   REMARKS
COVINGTON      CLOUDY    28  17  63 E7        30.35S WCI  21
COLUMBUS       MOCLDY    21  12  68 CALM      30.38F
DAYTON         MOCLDY    24  15  68 SE6       30.36F WCI  17
WILMINGTON     MOCLDY    22  12  65 E7        30.35F WCI  13
HUNTINGTON       N/A     28  18  66 E3        30.36F
CHARLESTON       N/A     28  22  78 CALM      30.37F
PINEVILLE*       N/A     32  29  89 MISG      30.38F
BECKLEY          N/A     27  16  63 CALM      30.32F
BLUEFIELD        N/A     32  16  51 E5        30.31F WCI  27
$$

VAZ002-007-008-TNZ017-027-036-066-071-030500
...SOUTHWEST VIRGINIA/EAST TENNESSEE...

CITY           SKY/WX    TMP DP  RH WIND       PRES   REMARKS
WISE*            N/A     34  21  60 CALM      30.28F
JONESVILLE*      N/A     32  30  93 CALM      30.31F
ABINGDON*        N/A     38  25  58 E8        30.28F WCI  32
BRISTOL        CLOUDY    35  28  75 CALM      30.29F
KNOXVILLE      LGT RAIN  41  37  86 N5        30.28F
OAK RIDGE      CLOUDY    41  32  70 CALM      30.30F
CROSSVILLE     CLOUDY    41  28  60 SE6       30.25F
NASHVILLE      CLOUDY    45  31  58 E5        30.26F
$$

...KEY TO REMARKS...
VSB - VISIBILITY IN MILES
WCI - WIND CHILL INDEX
HX  - HEAT INDEX

$$


USA.gov is the U.S. government's official web portal to all federal, state and local government web resources and services.